GW1320 Weather Reports


time (UTC)temp
F
wind
direction
speed
knots
gust
knots
rain 1hr
in
rain 24hr
in
rain mn
in
humidity
%
barometer
mb
20260510204555 62 5 2.6 8.7 0.00 0.00 0.00 53 1017.1
20260510203048 62 0 3.5 11.3 0.00 0.00 0.00 45 1017.2
20260510201549 63 327 3.5 11.3 0.00 0.00 0.00 50 1017.3
20260510200046 62 352 0.9 4.3 0.00 0.00 0.00 51 1017.4
20260510194552 61 5 0.9 8.7 0.00 0.00 0.00 46 1017.5
20260510193044 63 339 2.6 18.2 0.00 0.00 0.00 46 1017.6
20260510191542 63 286 8.7 13.9 0.00 0.00 0.00 46 1017.6
20260510190050 62 252 7.0 13.0 0.00 0.00 0.00 43 1017.4
20260510184548 62 5 2.6 9.6 0.00 0.00 0.00 52 1017.2
20260510183050 62 338 2.6 7.8 0.00 0.00 0.00 49 1017.3
20260510181602 62 22 2.6 9.6 0.00 0.00 0.00 50 1017.3
20260510174547 62 32 1.7 8.7 0.00 0.00 0.00 52 1016.8
20260510173049 61 0 3.5 11.3 0.00 0.00 0.00 56 1016.9
20260510171550 62 360 3.5 13.0 0.00 0.00 0.00 55 1016.9
20260510170042 61 5 1.7 7.8 0.00 0.00 0.00 58 1017.0
20260510164554 60 22 5.2 13.0 0.00 0.00 0.00 54 1017.2
20260510163048 61 26 1.7 9.6 0.00 0.00 0.00 64 1017.1
20260510161547 60 28 1.7 7.0 0.00 0.00 0.00 59 1017.0
20260510160045 60 316 0.9 7.0 0.00 0.00 0.00 60 1016.9
20260510154541 59 313 2.6 7.8 0.00 0.00 0.00 63 1016.7
20260510153041 59 12 2.6 7.8 0.00 0.00 0.00 60 1016.7
20260510151545 59 41 1.7 6.1 0.00 0.00 0.00 63 1016.5
20260510150104 59 33 2.6 7.8 0.00 0.00 0.00 63 1016.1
20260510144547 58 9 1.7 7.0 0.00 0.00 0.00 64 1016.1
20260510143049 57 59 1.7 7.0 0.00 0.00 0.00 66 1015.8
20260510141549 56 17 0.9 6.1 0.00 0.00 0.00 69 1015.6
20260510140049 55 22 0.9 3.5 0.00 0.00 0.00 71 1015.5
20260510134542 55 115 0.9 3.5 0.00 0.00 0.00 72 1015.3
20260510133047 54 0 0.9 4.3 0.00 0.00 0.00 75 1015.2
20260510131546 52 360 1.7 4.3 0.00 0.00 0.00 75 1015.3
20260510130049 52 360 1.7 3.5 0.00 0.00 0.00 77 1015.1
20260510124544 51 360 1.7 4.3 0.00 0.00 0.00 77 1014.9
20260510123041 51 0 0.0 2.6 0.00 0.00 0.00 79 1014.7
20260510121549 51 360 0.9 2.6 0.00 0.00 0.00 78 1014.5
20260510120050 50 0 0.0 0.0 0.00 0.00 0.00 78 1014.4
20260510114552 50 19 0.0 1.7 0.00 0.00 0.00 78 1014.1
20260510113047 50 0 0.0 1.7 0.00 0.00 0.00 77 1013.5
20260510111541 50 19 0.9 2.6 0.00 0.00 0.00 77 1013.4
20260510110046 50 15 0.0 1.7 0.00 0.00 0.00 77 1013.1
20260510104542 51 0 0.0 2.6 0.00 0.00 0.00 76 1012.7
20260510103049 51 15 0.9 2.6 0.00 0.00 0.00 76 1012.8
20260510101547 52 0 0.0 4.3 0.00 0.00 0.00 75 1012.3
20260510100050 53 346 1.7 4.3 0.00 0.00 0.00 74 1012.1
20260510094552 53 11 1.7 3.5 0.00 0.00 0.00 75 1011.6
20260510093043 53 11 1.7 6.1 0.00 0.00 0.00 75 1011.6
20260510091547 54 13 1.7 6.1 0.00 0.00 0.00 74 1011.2
20260510090059 54 18 2.6 6.1 0.00 0.00 0.00 73 1011.1
20260510084545 55 322 1.7 7.8 0.00 0.00 0.00 74 1010.7
20260510083054 56 21 3.5 7.8 0.00 0.00 0.00 74 1010.4
20260510081544 57 343 1.7 7.8 0.00 0.00 0.00 75 1010.4
20260510080051 57 352 2.6 9.6 0.00 0.00 0.00 74 1010.3
20260510074549 58 32 3.5 7.8 0.00 0.01 0.00 75 1010.2
20260510073053 58 355 3.5 8.7 0.00 0.01 0.00 76 1009.9
20260510071549 59 331 5.2 10.4 0.00 0.01 0.00 77 1010.1
20260510070047 59 346 7.8 13.0 0.00 0.01 0.00 78 1009.8
20260510064542 60 303 8.7 11.3 0.00 0.01 0.00 77 1009.7
20260510063041 60 286 7.0 9.6 0.00 0.01 0.00 77 1009.7
20260510061547 61 277 6.1 11.3 0.00 0.01 0.00 76 1009.6
20260510060051 62 262 9.6 13.9 0.00 0.01 0.00 75 1009.5
20260510054545 62 254 9.6 13.0 0.00 0.01 0.00 74 1009.4
20260510053043 61 266 7.0 11.3 0.00 0.01 0.00 77 1009.3
20260510051541 59 240 2.6 4.3 0.00 0.01 0.00 78 1009.2
20260510050053 60 236 0.9 2.6 0.00 0.01 0.00 76 1009.0
20260510044555 60 0 0.0 2.6 0.00 0.01 0.00 76 1009.0
20260510043050 61 13 1.7 8.7 0.00 0.01 0.00 75 1008.8
20260510041548 62 235 4.3 9.6 0.00 0.01 0.00 73 1008.6
20260510040044 62 234 5.2 7.8 0.00 0.01 0.00 73 1008.6
20260510034542 62 238 5.2 10.4 0.00 0.02 0.01 73 1008.4
20260510033058 62 244 4.3 8.7 0.00 0.02 0.01 75 1008.3
20260510031550 61 241 3.5 6.1 0.00 0.02 0.01 76 1008.1
20260510030059 61 234 3.5 6.1 0.00 0.02 0.01 75 1008.2
20260510024544 62 224 3.5 5.2 0.00 0.03 0.01 73 1008.3
20260510023041 62 201 3.5 6.1 0.00 0.03 0.01 72 1008.1
20260510021547 63 208 1.7 6.1 0.00 0.03 0.01 71 1007.9
20260510020047 64 163 4.3 7.8 0.00 0.03 0.01 69 1007.7
20260510014548 64 182 4.3 7.8 0.00 0.03 0.01 68 1007.4
20260510013046 65 230 3.5 10.4 0.00 0.03 0.01 67 1007.2
20260510011548 66 238 4.3 8.7 0.00 0.03 0.01 66 1007.0
20260510010041 67 233 3.5 7.8 0.00 0.03 0.01 65 1007.0
20260510004547 67 240 4.3 8.7 0.00 0.03 0.01 64 1006.7
20260510003051 68 236 3.5 8.7 0.00 0.03 0.01 63 1006.6
20260510001546 68 220 6.1 10.4 0.00 0.03 0.01 62 1006.3
20260510000048 69 183 6.1 13.9 0.00 0.03 0.01 60 1006.2
20260509234549 69 182 7.0 13.9 0.00 0.03 0.01 61 1006.0
20260509233041 70 219 9.6 14.8 0.00 0.03 0.01 59 1006.0
20260509231548 70 229 8.7 15.6 0.00 0.03 0.01 59 1006.0
20260509230050 70 219 11.3 16.5 0.00 0.03 0.01 57 1006.0
20260509224546 71 208 11.3 18.2 0.00 0.03 0.01 56 1005.9
20260509223049 71 242 12.2 20.0 0.00 0.03 0.01 53 1005.8
20260509221548 72 205 8.7 17.4 0.00 0.03 0.01 55 1005.6
20260509220043 71 223 11.3 18.2 0.00 0.03 0.01 56 1005.6
20260509214543 71 228 12.2 19.1 0.00 0.03 0.01 56 1005.5
20260509213115 71 221 12.2 18.2 0.00 0.03 0.01 58 1005.7
20260509211549 71 221 11.3 20.0 0.00 0.03 0.01 57 1005.9
20260509210101 71 206 8.7 23.5 0.00 0.03 0.01 60 1005.8